Wetbulb
71.55 75.30 77.26 77.18 77.33 77.03 77.36 77.41 77.48 77.33 77.28 77.13 76.98 76.91 76.58 76.35 76.65 76.92 76.75 76.67 76.50 76.13 75.43 74.74 73.78 73.20 72.94 73.14 73.57 73.71 74.14 74.31 73.68 73.46 73.47 73.90 73.93 74.12 74.24 72.83 72.47 71.54 71.84
73.08 75.65 76.35 77.08 77.10 77.11 77.06 77.21 76.98 76.92 76.90 77.03 76.98 76.85 76.50 76.52 76.57 76.64 76.57 76.59 76.17 75.42 74.49 73.28 72.70 72.37 72.33 72.63 73.10 73.74 74.17 74.50 74.52 73.59 73.24 73.33 74.18 74.19 73.48 72.58 72.15 71.49 71.48
73.58 75.64 76.19 77.02 76.95 77.00 76.65 76.57 76.57 76.57 76.57 76.60 76.42 76.32 76.37 76.35 76.54 76.46 76.36 76.26 75.58 74.44 73.01 72.31 71.64 71.56 71.69 72.10 73.03 73.51 73.92 74.10 74.45 72.96 72.19 70.95 71.92 73.50 72.74 72.29 72.16 71.98 71.07
74.51 75.53 75.54 76.87 76.70 76.78 76.50 76.21 76.13 76.21 76.34 76.19 76.14 76.32 76.22 76.31 76.46 76.23 76.09 75.52 74.39 73.28 72.17 71.43 70.75 70.29 70.45 70.75 71.29 71.96 72.36 72.26 72.40 72.57 70.48 70.85 70.44 72.68 72.87 72.27 72.27 72.16 71.35
74.12 75.00 75.55 76.97 76.59 76.60 76.29 76.01 75.98 75.93 75.96 76.04 76.09 76.19 76.19 76.08 75.98 75.60 75.44 74.90 73.72 72.57 71.65 70.81 70.15 70.53 70.45 69.80 70.21 69.96 69.96 70.42 69.99 67.14 67.04 66.91 67.69 71.51 72.87 72.56 72.45 72.48 72.04
73.57 74.82 76.07 76.58 76.46 76.39 76.29 75.83 75.76 75.71 75.86 75.89 76.04 75.89 75.83 75.68 75.20 75.05 74.94 74.37 73.68 72.27 71.38 70.78 70.60 70.49 69.87 69.36 69.27 69.26 69.90 70.65 69.40 68.21 68.38 67.76 67.14 69.66 72.56 72.33 72.27 72.26 72.21
72.92 74.43 76.01 76.55 76.28 76.16 76.17 75.91 75.63 75.68 75.38 75.53 75.56 75.64 75.44 75.03 74.67 74.57 74.34 73.83 73.59 72.85 71.64 70.38 70.38 70.16 69.77 69.54 69.52 69.29 69.92 69.36 66.96 67.17 66.73 66.39 67.80 71.77 73.18 72.96 73.05 72.53 72.22
72.75 74.20 75.15 76.11 76.17 75.85 75.86 75.63 75.22 75.25 75.30 75.30 75.20 75.16 75.08 74.62 74.52 74.50 74.24 73.98 73.45 72.71 71.86 71.10 70.70 69.98 69.16 68.77 69.10 69.11 69.52 68.90 66.46 66.16 66.55 66.03 68.13 70.00 72.61 74.10 74.20 72.86 72.24
73.76 73.95 74.29 74.85 75.46 75.88 75.59 75.36 75.14 74.93 74.84 74.91 74.72 74.80 74.66 74.46 74.54 74.46 74.07 73.86 73.68 72.78 72.26 71.57 70.67 70.10 69.33 68.92 69.67 69.80 69.92 68.47 66.57 66.66 66.23 66.06 66.95 70.04 71.74 73.89 73.80 73.13 72.51
73.06 72.96 73.55 73.85 74.55 74.12 74.29 75.51 75.18 74.96 74.75 74.62 74.59 74.71 74.33 74.26 74.38 74.13 73.34 73.59 73.30 72.51 72.14 71.52 70.78 70.31 69.84 69.65 69.95 69.80 69.38 68.79 65.66 65.35 65.57 65.06 67.49 68.88 69.99 73.53 74.47 73.73 73.38
72.31 72.49 73.17 73.08 73.40 73.69 73.38 74.34 74.95 75.03 74.88 74.74 74.59 74.41 73.43 72.67 73.00 72.90 72.64 72.95 73.20 72.44 71.94 71.50 71.08 70.47 70.29 70.07 70.17 70.12 69.89 66.62 65.53 65.45 65.47 66.60 68.49 69.33 70.11 73.46 74.45 74.03 73.73
69.68 71.30 72.09 72.43 72.64 73.03 73.53 73.34 73.18 73.42 73.52 73.21 73.37 73.21 71.85 71.31 71.42 71.61 72.02 72.83 73.11 72.41 72.04 71.70 71.38 70.96 70.56 67.26 66.18 67.25 65.23 64.76 64.42 64.82 65.59 67.82 69.50 69.87 70.73 73.07 74.20 74.04 73.95
69.20 70.86 71.74 72.08 72.26 72.51 72.22 73.08 72.76 72.86 72.70 72.44 72.04 72.29 70.84 70.50 70.92 71.37 70.11 71.19 70.26 71.84 69.06 70.68 69.70 69.26 67.90 67.07 66.44 65.90 65.32 65.20 64.61 64.83 65.77 68.70 69.90 70.66 71.57 73.29 74.20 74.37 73.87
68.81 70.15 71.48 71.74 72.20 72.31 72.55 72.29 72.01 72.00 72.14 72.00 72.47 72.52 70.73 69.69 69.01 69.19 68.69 68.11 67.80 67.66 67.10 66.42 66.48 66.87 66.72 66.97 66.82 66.34 65.79 65.25 64.80 65.20 65.59 68.44 70.10 70.69 71.65 73.80 74.50 74.77 74.12
68.32 69.45 71.39 71.65 71.75 71.51 71.18 72.30 71.95 71.80 71.92 71.82 71.79 71.72 71.37 69.82 68.81 68.61 67.77 66.65 66.30 66.14 66.00 65.63 65.33 65.72 65.69 65.91 65.95 65.99 65.46 65.64 65.59 65.42 65.76 67.88 69.97 70.88 71.56 73.78 74.92 75.37 74.80
68.31 68.85 71.16 71.14 71.40 71.79 71.49 71.65 71.46 71.63 71.73 71.44 71.67 71.43 71.09 70.10 68.54 67.77 67.15 66.38 65.49 65.54 65.42 65.33 65.22 65.20 65.24 65.55 65.70 66.14 65.99 65.89 66.04 66.20 66.07 66.41 68.70 69.94 70.98 73.38 74.75 75.60 75.15
68.14 68.95 70.14 70.73 71.05 71.17 71.59 71.20 71.03 71.33 71.69 71.35 71.49 71.70 71.32 70.15 68.40 67.76 67.12 66.18 65.58 65.49 65.67 65.54 65.75 65.61 65.32 65.44 65.43 66.23 66.30 66.72 66.74 67.16 67.22 67.42 67.22 68.24 69.97 72.25 73.92 74.40 74.75
65.74 67.84 69.37 70.83 70.78 70.65 71.16 71.19 71.11 71.42 71.74 71.55 71.68 71.37 71.46 70.72 69.23 67.00 66.15 66.22 66.75 65.87 65.89 65.80 65.75 66.05 66.35 66.37 66.39 67.02 66.59 66.70 66.80 66.59 66.98 67.27 67.59 67.19 68.49 71.50 72.63 73.25 73.75
62.71 67.01 67.97 69.25 69.72 70.26 70.75 70.65 70.63 70.59 70.81 70.60 70.04 70.30 70.78 70.69 69.91 68.08 67.35 66.18 66.44 66.82 67.00 66.86 67.08 67.37 66.70 66.57 65.96 66.57 66.40 66.64 67.16 67.32 67.55 67.61 68.26 67.93 67.44 68.12 70.92 72.09 72.80
56.91 63.02 67.18 68.59 68.65 69.20 69.69 69.31 67.97 68.15 69.28 70.19 69.74 69.55 69.71 70.28 70.23 68.24 67.62 66.77 66.90 66.15 66.46 67.05 67.22 66.64 66.42 66.72 66.14 66.50 66.71 66.97 66.89 66.59 67.07 67.83 68.44 68.56 68.13 68.27 68.93 70.34 71.25
54.12 60.81 64.47 66.45 67.31 67.85 67.59 67.38 67.03 66.29 67.28 67.64 68.27 68.94 68.89 69.38 69.90 69.17 67.99 66.15 66.32 66.97 67.06 67.15 67.15 66.53 65.64 66.73 65.39 64.89 64.79 65.68 65.79 66.34 68.26 68.33 68.50 68.98 68.94 69.38 68.77 68.51 69.73
55.04 59.00 63.50 65.93 66.01 67.23 67.99 68.26 67.73 67.73 66.94 67.91 68.27 68.53 68.80 68.99 69.11 69.14 68.76 67.97 66.87 66.25 66.81 67.36 66.86 65.69 65.29 65.58 64.50 62.88 59.56 62.82 65.11 67.82 67.26 67.81 67.99 68.77 68.61 69.68 69.71 69.36 69.20
55.82 59.09 63.29 65.96 67.12 67.15 67.63 67.21 66.32 66.48 66.39 66.35 67.05 67.46 68.15 68.87 69.17 69.10 68.90 68.76 68.84 68.37 67.48 67.48 67.25 66.22 64.98 65.03 65.37 63.30 59.92 58.92 62.68 65.72 66.24 67.14 67.98 66.19 66.98 68.84 69.43 69.69 69.71
54.94 58.23 61.58 63.80 66.19 67.12 67.21 66.85 66.20 65.36 65.17 65.87 67.16 67.95 67.93 68.91 69.38 69.78 69.40 69.47 69.42 69.73 69.17 68.56 68.19 67.28 66.31 64.18 64.94 65.96 65.71 64.81 62.35 61.34 63.90 65.23 65.18 64.14 64.28 66.62 68.62 69.78 70.69
54.04 54.99 58.22 61.71 63.49 65.47 66.74 66.88 65.30 63.67 63.68 64.33 65.08 66.02 66.76 67.37 68.06 68.44 68.76 68.97 68.54 68.47 68.36 67.89 67.42 66.25 65.98 65.60 65.32 65.11 65.14 65.54 65.30 63.71 61.78 62.95 62.36 62.97 63.53 65.89 67.66 69.63 69.99
51.91 54.00 55.52 57.70 59.35 61.45 63.73 64.48 65.01 63.86 64.00 63.51 63.72 63.91 65.01 65.79 66.78 67.30 67.74 66.74 68.25 68.58 68.65 68.36 68.56 66.00 65.83 67.21 66.56 65.42 65.61 64.95 63.99 61.73 61.06 60.24 59.88 62.15 64.76 67.08 68.28 69.37 69.92
MSLP
1007.39 1007.74 1008.27 1008.81 1008.84 1008.72 1008.88 1009.05 1009.36 1009.70 1010.06 1010.49 1010.88 1011.30 1011.68 1012.06 1012.45 1012.76 1013.03 1013.31 1013.56 1013.85 1014.12 1014.27 1014.62 1014.78 1014.94 1015.12 1015.29 1015.35 1015.44 1015.56 1015.76 1015.80 1015.82 1015.91 1015.89 1016.00 1016.20 1016.24 1016.37 1016.35 1016.38
1006.51 1007.25 1008.07 1008.60 1009.00 1008.87 1008.93 1009.10 1009.34 1009.77 1010.10 1010.53 1010.98 1011.51 1011.96 1012.44 1012.76 1013.05 1013.27 1013.51 1013.81 1014.03 1014.25 1014.58 1014.79 1015.00 1015.10 1015.25 1015.38 1015.45 1015.58 1015.70 1015.77 1015.87 1015.93 1016.00 1015.99 1016.17 1016.25 1016.36 1016.38 1016.58 1016.69
1006.77 1007.42 1008.12 1008.60 1009.00 1009.20 1009.23 1009.28 1009.54 1009.89 1010.38 1010.70 1011.16 1011.61 1012.01 1012.57 1013.06 1013.33 1013.54 1013.83 1013.98 1014.17 1014.36 1014.68 1014.94 1015.06 1015.14 1015.29 1015.38 1015.48 1015.72 1015.81 1015.92 1016.00 1016.09 1016.27 1016.41 1016.44 1016.43 1016.40 1016.45 1016.44 1016.65
1006.96 1007.70 1008.33 1008.81 1009.12 1009.42 1009.45 1009.68 1009.97 1010.29 1010.66 1010.94 1011.19 1011.70 1012.14 1012.68 1013.08 1013.43 1013.72 1013.91 1014.08 1014.29 1014.61 1014.71 1014.93 1015.22 1015.38 1015.40 1015.51 1015.62 1015.67 1015.82 1015.90 1016.03 1016.28 1016.39 1016.45 1016.43 1016.51 1016.50 1016.43 1016.30 1016.60
1007.13 1007.77 1008.52 1008.91 1009.12 1009.40 1009.90 1009.94 1010.19 1010.63 1010.99 1011.36 1011.70 1011.86 1012.34 1012.82 1013.21 1013.47 1013.63 1013.86 1014.24 1014.52 1014.68 1014.86 1014.99 1015.22 1015.40 1015.52 1015.67 1015.76 1015.77 1015.87 1016.02 1016.25 1016.42 1016.46 1016.56 1016.52 1016.54 1016.81 1016.64 1016.65 1016.59
1007.06 1007.54 1008.43 1008.95 1009.24 1009.51 1009.74 1010.06 1010.33 1010.69 1011.01 1011.49 1011.88 1012.25 1012.58 1012.92 1013.21 1013.49 1013.72 1013.94 1014.24 1014.59 1014.85 1014.92 1015.15 1015.38 1015.54 1015.77 1015.83 1015.81 1015.94 1016.04 1016.14 1016.38 1016.38 1016.32 1016.24 1016.33 1016.50 1016.67 1016.81 1016.78 1016.82
1007.20 1007.79 1008.37 1008.77 1009.12 1009.52 1009.97 1010.22 1010.35 1010.77 1011.09 1011.34 1011.75 1012.13 1012.65 1013.03 1013.38 1013.56 1013.83 1014.05 1014.30 1014.61 1014.85 1015.04 1015.19 1015.45 1015.62 1015.81 1015.90 1015.95 1016.08 1016.09 1016.35 1016.36 1016.31 1016.26 1016.27 1016.33 1016.36 1016.38 1016.55 1016.71 1016.88
1006.99 1007.61 1008.27 1008.89 1009.08 1009.22 1009.68 1010.23 1010.50 1010.73 1011.06 1011.24 1011.63 1011.90 1012.33 1012.83 1013.16 1013.50 1013.79 1014.15 1014.35 1014.57 1014.82 1015.15 1015.38 1015.51 1015.60 1015.77 1015.97 1015.98 1015.96 1015.97 1016.22 1016.36 1016.32 1016.28 1016.16 1016.09 1016.05 1016.25 1016.34 1016.57 1016.74
1007.87 1008.12 1008.38 1008.95 1009.25 1009.30 1009.51 1009.96 1010.53 1010.81 1011.03 1011.24 1011.39 1011.86 1012.28 1012.46 1012.87 1013.33 1013.72 1014.10 1014.42 1014.64 1014.77 1014.98 1015.28 1015.38 1015.47 1015.61 1015.76 1015.87 1015.88 1015.95 1016.15 1016.23 1016.14 1016.04 1016.00 1016.04 1016.03 1016.13 1016.23 1016.31 1016.58
1008.12 1008.22 1008.80 1009.03 1009.43 1009.59 1009.98 1009.95 1010.32 1010.79 1011.10 1011.35 1011.78 1011.81 1012.11 1012.55 1012.94 1013.19 1013.63 1014.04 1014.33 1014.61 1014.79 1015.00 1015.10 1015.36 1015.49 1015.42 1015.52 1015.61 1015.73 1015.81 1016.01 1016.16 1016.14 1016.00 1016.00 1016.03 1015.95 1015.96 1016.09 1016.08 1016.31
1008.07 1008.29 1008.42 1009.06 1009.40 1009.71 1010.02 1010.39 1010.63 1010.92 1011.27 1011.42 1011.69 1012.09 1012.29 1012.67 1013.05 1013.36 1013.61 1013.91 1014.28 1014.55 1014.85 1015.02 1015.09 1015.24 1015.39 1015.44 1015.49 1015.47 1015.54 1015.87 1015.87 1015.84 1015.92 1015.84 1015.80 1015.72 1015.63 1015.74 1015.75 1015.80 1016.06
1007.37 1007.83 1008.00 1008.86 1009.09 1009.65 1009.76 1010.09 1010.55 1010.93 1011.44 1011.64 1011.85 1012.10 1012.33 1012.67 1012.98 1013.32 1013.64 1013.92 1014.19 1014.47 1014.74 1014.99 1015.09 1015.14 1015.17 1015.34 1015.45 1015.56 1015.71 1015.59 1015.55 1015.47 1015.41 1015.23 1015.25 1015.24 1015.09 1015.14 1015.46 1015.54 1015.65
1007.16 1007.90 1007.45 1008.24 1009.01 1009.39 1009.54 1009.94 1010.45 1010.70 1011.04 1011.75 1012.12 1012.14 1012.46 1012.70 1012.89 1013.16 1013.47 1013.59 1014.08 1014.41 1014.80 1014.91 1015.16 1015.34 1015.30 1015.28 1015.45 1015.61 1015.53 1015.43 1015.23 1015.15 1014.88 1014.53 1014.55 1014.63 1014.63 1014.60 1014.73 1014.96 1015.18
1006.79 1007.30 1007.70 1007.70 1008.54 1009.05 1009.44 1009.66 1009.94 1010.75 1010.95 1011.35 1011.81 1012.16 1012.29 1012.70 1012.96 1013.09 1013.43 1013.87 1014.22 1014.41 1014.68 1014.95 1015.11 1015.31 1015.32 1015.22 1015.32 1015.38 1015.08 1015.26 1015.07 1014.99 1014.70 1014.51 1014.37 1014.25 1014.05 1014.14 1014.09 1014.09 1014.56
1006.40 1006.78 1007.06 1007.61 1008.02 1008.39 1009.01 1009.45 1009.79 1010.01 1010.43 1010.93 1011.13 1011.72 1012.21 1012.45 1012.89 1013.14 1013.29 1013.76 1014.20 1014.59 1014.71 1014.81 1014.89 1015.05 1015.12 1015.12 1015.16 1015.23 1014.90 1014.88 1014.84 1014.76 1014.38 1014.15 1014.20 1014.28 1013.95 1013.40 1013.58 1013.68 1013.76
1005.97 1006.22 1006.75 1007.09 1007.76 1008.35 1008.46 1008.81 1009.16 1009.51 1009.78 1010.48 1010.89 1011.23 1011.85 1012.09 1012.44 1012.89 1013.72 1013.58 1014.19 1014.34 1014.62 1014.81 1014.86 1014.90 1014.88 1014.85 1014.87 1014.92 1014.66 1014.43 1014.32 1014.14 1013.83 1013.60 1013.68 1013.53 1013.45 1013.38 1013.38 1013.35 1013.31
1005.14 1005.89 1006.24 1006.38 1007.24 1007.70 1007.84 1008.06 1008.50 1008.48 1008.85 1009.98 1010.44 1010.95 1011.57 1012.09 1012.36 1012.57 1012.91 1013.39 1013.76 1013.95 1014.42 1015.03 1014.87 1014.88 1014.71 1014.99 1014.82 1014.64 1014.43 1014.20 1014.03 1013.66 1013.20 1013.13 1013.30 1012.98 1012.59 1012.84 1012.86 1012.76 1013.05
1004.91 1005.14 1005.44 1006.01 1006.83 1007.30 1007.60 1007.65 1007.96 1007.95 1008.87 1009.42 1010.27 1010.37 1011.05 1011.53 1012.24 1012.56 1012.83 1013.29 1013.69 1013.29 1013.78 1014.72 1015.06 1014.79 1014.69 1014.38 1014.57 1014.26 1014.31 1014.04 1013.73 1013.43 1012.75 1012.84 1012.97 1012.72 1012.38 1012.02 1011.96 1012.15 1012.23
1004.22 1004.50 1004.81 1005.31 1005.91 1006.38 1006.95 1007.48 1007.79 1008.30 1008.60 1009.24 1009.75 1010.00 1010.40 1010.94 1011.30 1011.89 1012.61 1012.53 1013.37 1013.31 1013.07 1014.38 1014.72 1014.66 1014.46 1014.22 1014.17 1013.83 1014.05 1013.73 1013.44 1013.08 1012.81 1012.46 1012.55 1012.34 1012.05 1011.81 1011.83 1011.59 1011.37
1003.98 1004.26 1004.29 1004.54 1005.06 1006.02 1006.87 1007.57 1007.96 1008.39 1008.64 1008.54 1009.10 1009.43 1009.54 1009.90 1010.37 1011.17 1011.64 1012.43 1012.59 1013.18 1012.99 1013.61 1014.25 1014.07 1014.47 1013.86 1013.80 1013.64 1013.38 1013.13 1012.96 1012.89 1012.80 1012.02 1012.34 1012.20 1011.84 1011.82 1011.67 1011.63 1010.83
1003.81 1004.24 1004.15 1004.50 1004.76 1005.31 1006.30 1006.97 1007.54 1007.58 1008.24 1008.37 1008.73 1008.81 1009.59 1009.82 1009.62 1009.96 1010.87 1011.50 1012.42 1012.45 1013.18 1012.76 1013.31 1013.78 1014.36 1013.65 1013.58 1013.28 1013.05 1012.59 1012.60 1012.26 1012.50 1012.08 1011.82 1011.81 1012.08 1012.00 1011.94 1011.72 1010.75
1002.97 1003.01 1003.75 1003.87 1004.29 1004.57 1005.05 1005.77 1006.38 1007.15 1007.62 1007.82 1008.36 1008.52 1008.77 1009.21 1009.53 1009.24 1010.12 1010.28 1010.95 1012.00 1012.98 1012.26 1012.23 1013.59 1014.17 1013.40 1013.49 1013.74 1013.48 1013.04 1012.51 1011.92 1012.21 1012.10 1011.99 1012.05 1011.32 1010.95 1011.29 1011.72 1010.51
1003.09 1002.94 1002.95 1002.94 1003.44 1003.97 1004.59 1005.61 1006.18 1007.01 1007.66 1008.08 1008.03 1008.37 1008.48 1008.41 1009.03 1009.36 1010.10 1010.19 1010.07 1011.41 1011.35 1012.42 1011.54 1012.09 1013.23 1013.07 1013.66 1013.32 1014.06 1013.75 1013.61 1012.39 1012.44 1012.40 1012.29 1011.91 1011.59 1010.90 1010.95 1011.33 1010.14
1002.39 1002.55 1002.68 1002.94 1003.23 1003.62 1004.30 1005.04 1005.64 1006.17 1007.02 1007.36 1007.20 1007.21 1007.34 1007.52 1008.02 1008.59 1009.09 1009.08 1010.07 1011.28 1011.65 1011.83 1011.37 1011.04 1011.63 1012.42 1013.03 1012.60 1013.44 1013.89 1014.20 1013.36 1012.50 1012.12 1012.22 1011.98 1011.69 1010.89 1010.26 1010.43 1009.36
1002.60 1002.31 1002.51 1002.73 1003.08 1003.41 1003.81 1004.35 1005.15 1005.96 1006.56 1006.82 1007.33 1007.52 1007.51 1007.63 1007.96 1007.93 1008.25 1009.01 1010.19 1010.72 1011.29 1012.22 1011.74 1010.65 1011.16 1011.31 1011.67 1012.79 1012.60 1012.36 1014.23 1013.73 1013.00 1012.56 1012.23 1011.46 1011.16 1010.88 1009.74 1008.71 1009.11
1002.12 1002.53 1002.82 1003.00 1003.16 1003.39 1003.59 1004.04 1004.63 1005.29 1006.11 1006.76 1007.34 1007.46 1007.53 1007.59 1007.85 1007.96 1008.50 1008.88 1009.51 1010.13 1011.30 1011.00 1011.85 1011.16 1010.93 1011.01 1010.51 1010.93 1011.48 1011.67 1012.79 1012.90 1012.74 1012.29 1011.69 1010.65 1010.35 1010.17 1009.44 1008.78 1008.56
Wind_Speed
7 12 17 15 15 16 16 20 20 20 21 20 20 20 20 19 18 17 16 15 14 14 13 13 12 12 12 13 13 13 12 12 11 11 10 8 6 8 8 9 8 7 7
14 14 21 18 15 16 17 18 20 20 20 20 20 20 19 18 17 16 15 14 14 14 13 12 12 12 12 13 13 13 12 11 10 9 9 8 8 10 8 8 9 7 6
15 13 15 18 17 16 16 17 18 20 20 20 20 20 19 17 16 15 14 13 13 13 13 12 11 12 12 13 13 12 11 10 8 9 8 4 3 5 6 7 9 9 6
14 11 11 17 17 16 17 17 17 17 17 18 19 19 18 16 16 15 14 13 13 13 12 12 11 11 11 12 11 11 10 9 7 6 2 2 1 5 6 7 9 9 7
13 12 11 16 17 18 17 18 18 16 16 17 17 18 17 16 15 14 14 13 12 12 11 11 11 9 9 9 8 8 7 6 5 4 2 2 3 5 6 6 6 7 8
14 14 15 16 17 18 19 19 19 18 18 17 17 16 16 15 14 13 12 11 11 11 10 10 8 8 7 7 7 7 6 5 5 2 1 4 4 7 7 6 5 6 5
13 12 11 16 17 18 17 18 20 19 19 19 18 17 16 14 12 12 11 11 10 10 10 9 8 8 7 6 7 7 6 4 3 1 2 3 1 5 7 8 7 7 6
15 16 14 16 16 18 18 17 18 19 19 19 17 17 16 14 13 12 11 11 10 10 9 8 7 7 7 6 4 5 5 5 3 2 2 2 5 6 8 8 7 8 8
10 12 13 13 13 16 17 17 15 16 17 17 17 16 15 16 14 13 12 11 10 9 9 9 8 7 6 4 2 0 1 2 3 1 2 2 5 4 8 9 9 9 9
7 8 12 12 9 8 9 16 16 15 15 15 15 16 15 14 13 13 11 10 10 9 9 8 8 6 4 3 2 3 3 4 1 1 2 2 6 8 8 10 11 11 10
9 9 12 12 12 9 7 9 13 16 14 14 14 14 12 6 7 9 9 10 9 8 7 7 7 6 5 3 4 5 5 1 2 1 2 5 7 8 8 9 13 12 11
15 15 12 14 13 11 8 9 7 8 6 5 6 8 6 6 6 6 8 9 9 8 8 7 7 6 4 2 1 3 1 3 3 3 3 5 7 8 8 10 12 13 13
9 10 14 15 13 12 9 6 4 4 5 3 4 6 4 4 5 4 3 4 3 6 2 4 3 2 3 2 2 2 3 4 3 4 6 8 7 8 9 8 9 12 14
13 12 11 14 13 11 6 7 7 6 5 5 6 8 5 4 4 4 3 2 3 3 4 3 2 3 3 4 4 4 4 4 3 4 6 11 10 10 8 8 10 12 12
13 14 15 13 13 12 9 8 7 9 7 7 8 10 6 5 5 3 3 3 3 2 3 3 3 3 3 4 3 5 5 5 5 4 4 12 10 11 12 9 10 12 12
11 14 15 15 13 12 11 12 10 9 9 8 8 10 11 6 4 4 2 3 3 3 3 3 3 3 3 3 4 4 6 5 6 6 5 5 10 11 12 12 11 11 12
11 11 16 16 15 15 16 13 11 10 10 10 10 10 9 6 5 5 5 4 5 4 4 3 3 2 2 3 5 4 4 5 6 6 7 4 5 10 11 13 12 12 12
10 16 15 14 16 14 15 12 9 8 8 8 8 7 9 8 5 4 3 4 4 4 3 3 3 2 3 3 3 3 4 4 6 7 7 4 5 5 8 12 13 13 13
12 13 15 16 18 18 14 10 9 8 7 6 5 6 8 7 8 5 5 4 6 4 5 3 4 3 3 3 3 3 4 4 6 6 8 4 6 6 5 7 13 15 14
10 9 13 14 15 14 9 5 4 5 7 8 8 8 12 10 10 7 5 4 4 4 4 4 5 3 4 3 2 3 4 5 3 4 7 3 5 7 5 6 4 8 12
8 8 10 13 12 12 10 10 8 10 6 6 5 7 7 6 11 11 7 5 5 6 7 5 4 3 4 3 1 2 3 5 4 4 3 4 5 5 5 4 4 5 4
13 14 12 13 12 12 10 10 4 6 4 5 5 5 7 9 9 7 9 8 7 7 8 7 6 3 4 3 2 1 4 5 4 1 3 3 7 4 4 3 4 9 6
9 12 14 14 14 12 9 8 4 5 3 2 4 5 8 8 6 7 8 9 8 8 5 9 9 9 5 2 3 4 2 3 2 3 4 4 7 2 5 4 5 9 6
10 6 7 7 9 9 10 9 11 6 7 4 5 5 4 6 6 8 8 4 4 3 6 10 6 5 5 5 3 4 3 3 2 5 2 3 5 7 8 4 6 8 5
5 8 6 7 7 8 11 11 8 5 4 3 3 6 6 4 5 4 5 7 7 2 6 8 9 5 5 6 5 4 4 3 6 7 7 5 3 6 6 7 7 2 4
6 6 6 9 7 8 9 10 11 11 10 8 6 4 3 3 4 7 6 7 7 13 18 14 16 7 6 4 2 4 5 5 5 4 6 7 6 7 5 6 6 4 2
Wind_Direction
174 152 153 156 155 143 133 127 125 121 123 127 128 128 125 129 136 137 134 130 128 128 127 120 115 113 114 116 117 116 113 114 117 118 118 111 103 124 108 102 99 101 107
144 149 157 154 156 145 138 129 124 123 126 128 129 128 127 134 136 137 135 133 132 135 131 128 128 127 127 125 121 119 122 123 122 120 114 104 91 117 122 120 125 121 115
141 146 151 152 152 146 138 132 128 129 130 130 130 131 134 137 138 138 137 136 140 139 138 138 137 136 131 130 131 130 127 122 119 113 102 95 101 125 137 148 139 127 120
137 143 147 151 148 146 142 135 131 130 130 130 132 135 136 139 142 142 141 142 145 143 146 146 144 140 136 137 138 132 130 128 120 115 99 127 233 164 171 169 149 139 130
138 146 157 154 148 146 146 140 137 136 134 135 137 140 141 143 144 145 146 145 146 151 155 151 146 138 137 138 131 130 127 120 117 105 69 271 235 203 188 183 166 151 143
146 151 163 157 151 150 151 147 144 145 143 144 147 145 145 146 145 147 146 146 155 159 159 153 144 139 136 136 135 131 122 112 112 91 42 352 178 212 190 191 192 181 169
143 155 158 160 155 152 153 151 149 151 150 151 152 148 148 145 146 149 153 157 161 164 163 159 151 143 141 148 142 134 127 120 116 80 10 12 288 222 198 206 205 197 195
149 161 164 165 162 156 154 155 155 155 156 153 154 152 149 150 155 159 160 168 170 168 163 162 150 150 157 150 146 142 139 124 108 72 353 354 332 241 224 221 200 202 201
148 158 166 172 168 162 159 157 160 161 161 159 157 155 155 159 162 166 170 176 178 172 169 163 164 171 172 157 153 38 12 33 95 81 324 331 318 308 252 237 222 213 211
141 150 171 177 169 165 167 160 161 168 168 165 165 160 161 165 170 174 175 182 181 181 178 174 174 182 189 193 236 286 312 347 59 327 285 279 295 297 282 253 234 218 210
160 171 175 179 183 169 156 173 168 172 175 172 169 169 160 164 175 185 183 188 189 186 187 186 185 195 206 226 260 277 306 319 300 262 248 273 276 284 284 268 242 222 215
176 181 177 188 181 177 171 171 167 177 176 177 174 173 168 172 176 179 188 195 195 194 197 199 204 209 221 232 267 302 324 285 287 280 241 237 256 269 271 260 251 231 215
163 186 178 182 186 182 173 168 176 171 158 169 178 172 168 170 183 185 186 191 174 195 190 214 236 244 242 261 279 301 291 281 276 283 281 263 248 258 267 260 252 235 223
174 186 185 179 177 178 175 178 170 177 170 177 185 198 181 184 194 188 188 186 169 175 187 206 206 237 260 270 278 282 271 277 279 275 273 276 269 270 274 276 242 221 224
178 183 185 184 182 172 172 179 181 182 178 188 190 204 200 194 200 189 179 166 178 182 203 211 206 227 251 265 256 263 275 273 275 271 270 281 274 267 266 250 233 218 211
179 186 180 184 183 180 182 187 188 189 186 189 201 205 202 194 183 162 204 179 206 185 214 216 221 214 242 269 281 264 267 268 265 270 266 261 264 253 255 252 231 224 219
198 179 188 182 182 188 196 189 194 190 185 196 203 198 194 198 200 200 184 197 196 182 219 257 249 228 233 264 269 271 269 264 264 265 266 262 265 255 250 243 226 220 230
175 186 184 186 193 192 198 193 191 179 194 195 202 186 187 183 194 191 196 212 226 174 172 201 240 241 254 215 259 267 272 272 270 269 274 277 278 268 263 237 221 220 222
200 191 184 188 192 196 195 191 188 177 182 181 171 172 171 180 181 195 214 212 210 204 154 199 232 220 234 264 254 262 259 259 265 282 290 305 289 268 251 261 251 225 217
205 198 195 189 190 188 184 168 153 170 183 183 191 197 182 183 180 188 203 216 202 216 187 173 219 187 244 238 265 270 257 256 240 265 271 308 294 283 273 269 270 259 211
221 196 192 184 185 171 179 179 184 190 187 188 192 186 198 203 191 181 200 182 189 211 222 182 179 193 258 210 312 314 288 279 273 230 270 304 274 278 265 278 270 257 230
207 204 197 193 175 184 183 189 169 177 197 191 185 185 194 192 193 195 203 195 176 209 223 178 149 152 243 189 143 110 350 320 321 352 334 257 262 279 268 240 253 265 228
204 203 196 184 180 183 170 135 101 103 88 145 204 203 198 182 189 190 203 214 178 204 190 234 180 165 199 121 238 107 337 261 322 322 264 278 283 286 296 277 243 250 222
230 189 176 160 165 166 154 152 159 158 156 195 208 221 216 192 194 183 194 196 137 231 221 223 216 175 139 169 204 173 188 141 279 313 323 297 301 303 280 267 226 232 228
220 202 193 168 160 159 165 166 155 150 144 137 128 184 196 200 214 224 189 158 183 152 312 298 265 171 190 198 154 190 192 132 236 215 269 276 301 248 277 265 293 307 277
189 187 179 174 181 171 165 164 169 168 158 156 167 194 209 186 219 212 200 181 176 181 215 209 231 243 244 282 155 182 197 160 199 197 231 249 234 300 270 285 285 283 267